Tracking 25710 objects as of 6-Jul-2022
HD Live streaming from Space Station
objects crossing your sky now

FENGYUN 1C DEB

Track FENGYUN 1C DEB now!
10-day predictions


NORAD ID: 32218
Int'l Code: 1999-025CVQ
Perigee: 709.1 km
Apogee: 825.2 km
Inclination: 98.7 °
Period: 100.0 minutes
Semi major axis: 7138 km
RCS: 0.0091 m2 (small)
Launch date: May 10, 1999
Source: People's Republic of China (PRC)
Launch site: Taiyaun Space Center, China (TSC)

Note: This is SATELLITE DEBRIS
aabbcc
Your satellite tracking list
Your tracking list is empty




NASA's NSSDC Master Catalog

Two Line Element Set (TLE):
1 32218U 99025CVQ 22186.12546656  .00001118  00000-0  35950-3 0  9991
2 32218  98.7214 318.5087 0081266 237.9356 297.8036 14.39540285781371
Source of the keplerian elements: AFSPC